Vertical_Velocity
1 -4 4 -4 -2 -0 -1 -2 -2 3 -12 -8 -2 1 3 -1 -4 0 -0 -1 0 0 -4 -0 -2 -1 -0 -1 -1 -2 -1 -2 -1 -1 -1 -1 -1 -1 -0 -1 -0 0 0 -0
-1 3 -3 -0 -2 -1 -1 -2 8 2 -9 -9 -3 -0 5 0 -1 1 -3 -4 -1 -0 -1 -0 -4 -2 -1 -1 -2 -2 -3 -1 -1 -0 -0 -1 -1 0 -1 -1 -0 -0 0 1
-7 5 0 -1 -0 -2 -0 -1 3 -4 -9 -1 -9 0 1 8 4 -2 1 0 -1 -1 -2 -1 -0 -1 0 -0 -2 -2 -0 -1 -0 -1 -0 -1 0 -0 -1 -0 -0 0 1 0
-8 9 1 -0 1 -5 -3 -5 3 -1 -9 -1 -2 -36 -1 2 10 4 -0 0 2 3 1 -1 -2 -2 -2 1 -0 -2 -1 -3 -1 -1 -1 -0 0 1 -0 -0 1 1 -0 -1
4 2 -2 -2 5 -0 -8 4 2 -1 -5 -14 12 -39 28 -5 5 7 2 3 -1 -1 0 3 -1 -0 -1 -1 -4 -2 -2 -3 -1 -1 -0 -0 1 0 0 0 -1 -1 -0 -0
12 1 -0 1 3 1 2 -1 2 -3 -1 -33 24 -10 39 8 3 5 4 1 -2 -1 -3 -3 -3 -2 -3 -2 -4 -1 -2 -3 -1 -1 -0 -1 -1 1 -2 -1 -1 -1 0 -1
5 2 -0 -1 -1 6 5 7 -4 -19 -7 -14 2 -20 13 -7 0 2 3 8 4 1 -4 -4 -5 -5 -3 -1 -2 -1 -1 -1 -0 -1 0 -1 -1 0 -1 -1 -1 -1 1 0
-3 -4 8 16 10 -11 7 3 3 -10 4 4 -28 -28 3 -2 2 5 -1 3 8 1 1 0 -2 -1 -0 -0 -1 -1 1 0 -0 -1 -1 -1 -1 -0 -1 -1 -0 -2 -0 -1
-4 -13 7 1 4 7 -14 -5 14 -9 12 -12 22 -3 -18 -4 8 4 -1 2 0 -1 2 3 -1 -2 -1 -0 0 0 0 2 1 1 -0 -0 -1 -1 -2 -0 -1 -1 -0 0
5 -36 9 -8 -3 7 4 2 -1 16 -18 1 -35 -8 -6 -1 -1 2 11 8 2 -4 -5 -4 -1 -1 -0 -1 -1 -1 0 3 -0 3 2 1 1 -1 -1 -0 -2 0 -1 -1
5 -4 31 -17 7 16 7 -2 5 17 -10 11 -19 -43 29 2 15 -1 6 1 -2 -3 -2 -3 0 -1 -1 0 0 0 -0 2 1 0 1 1 2 2 1 -0 -0 -0 0 1
16 -18 -39 14 20 -8 18 -5 9 5 -8 -8 -1 -114 82 25 -3 21 2 -0 -3 5 2 -3 -3 -3 1 -1 1 2 -0 0 2 1 0 1 1 1 1 2 1 2 1 0
5 -16 -26 -4 7 3 -1 10 0 5 7 -41 27 -82 70 17 -2 -12 2 4 5 -1 -1 -1 -1 1 1 0 1 1 2 3 1 1 2 2 2 5 6 3 2 4 1 1
9 0 -0 -23 15 17 -11 0 4 9 -3 5 -20 -4 27 -7 -6 6 4 7 2 -1 -0 -1 -0 2 1 -0 -1 -0 0 0 0 1 2 2 2 2 8 4 4 1 3 5
16 -6 5 -2 -11 9 13 14 13 6 14 11 -11 8 -13 -6 -1 -1 7 1 -7 2 2 3 2 -1 2 2 1 2 2 -1 1 3 2 3 5 2 7 10 4 2 3 3
6 -14 -1 -21 12 4 2 -2 1 3 0 8 14 -3 4 5 3 0 0 6 -2 -4 -1 0 -0 0 -1 -0 2 1 1 3 2 1 2 8 2 15 10 6 8 5 -2 -1
-3 1 8 -59 45 9 17 -3 3 -2 -3 -1 5 7 5 1 -8 -10 -8 -6 -2 -0 0 0 2 2 1 -0 -0 1 2 2 2 1 2 3 1 10 2 10 8 2 1 4
3 6 5 -29 18 9 -12 2 1 4 4 -1 -1 -2 1 1 2 -4 -7 -2 -1 7 5 1 2 5 3 8 1 -1 2 12 -2 3 5 8 12 12 11 3 2 3 3 5
-0 6 4 -4 3 5 4 3 7 -7 3 7 4 5 10 3 5 8 2 3 2 4 10 6 5 12 11 6 9 0 -0 10 16 26 18 10 15 16 13 9 10 5 3 4
1 3 2 5 2 5 5 6 6 -6 4 11 6 2 2 4 2 4 3 1 1 3 5 3 3 6 7 10 6 6 8 8 5 3 4 4 7 4 1 3 1 6 10 3
4 -2 -1 -2 3 -4 3 1 -5 6 -9 -4 -3 3 2 3 3 4 0 0 -2 1 -2 -1 -1 -3 -8 -4 -4 0 2 -1 3 3 2 -3 1 2 6 1 -2 6 5 8
3 6 7 5 2 6 4 -1 -4 -0 -4 -2 -3 -3 -0 -3 1 -1 -1 1 -5 -6 -7 -11 -4 2 -2 -3 -1 -3 -1 2 -3 -2 1 1 -1 -2 4 5 4 6 3 5
5 -2 -4 -3 2 -2 3 4 2 -1 1 2 0 -4 -3 -2 2 -2 -3 3 1 4 3 5 3 6 5 7 9 6 4 5 6 5 5 5 4 3 0 5 5 -0 1 -1
-1 1 -1 -1 4 -0 -2 -1 -3 -2 1 -2 -1 -0 -1 -1 -2 -1 1 -0 -0 3 6 5 4 2 0 5 7 7 7 3 4 1 2 4 4 2 0 2 -1 -1 -0 -3
-0 -1 0 3 -0 -0 -1 2 0 0 -0 -1 -3 2 1 2 -2 2 1 1 2 3 2 2 3 2 1 2 3 6 1 -0 5 5 1 3 -1 -1 1 1 0 -0 1 -3
1 -0 -1 0 -1 -1 -0 -0 -2 -2 -1 -2 -0 -2 -8 -6 0 -2 -1 -4 -4 -2 -3 -1 0 2 3 -1 2 -0 -7 -0 3 4 3 2 -3 -5 -3 -2 -0 -2 1 -0
Height
5766 5764 5767 5762 5762 5762 5760 5758 5758 5758 5750 5752 5752 5752 5755 5750 5747 5749 5749 5748 5748 5748 5746 5746 5744 5743 5741 5740 5738 5737 5735 5733 5730 5729 5727 5726 5725 5725 5725 5725 5725 5724 5724 5724
5759 5758 5759 5756 5755 5753 5753 5751 5751 5748 5744 5743 5743 5743 5748 5746 5742 5741 5741 5741 5740 5739 5738 5737 5736 5735 5733 5731 5729 5728 5726 5724 5722 5720 5718 5716 5715 5715 5715 5716 5716 5715 5715 5715
5749 5751 5752 5748 5747 5745 5744 5742 5743 5740 5736 5736 5732 5734 5738 5739 5738 5735 5734 5732 5732 5731 5730 5728 5727 5726 5724 5721 5720 5718 5716 5714 5712 5710 5708 5706 5706 5706 5706 5706 5706 5706 5705 5705
5741 5744 5743 5740 5739 5736 5735 5734 5734 5731 5728 5726 5722 5720 5730 5729 5731 5729 5727 5725 5724 5722 5720 5719 5718 5717 5715 5712 5711 5709 5706 5704 5701 5699 5698 5697 5696 5696 5696 5695 5695 5695 5695 5695
5735 5734 5733 5732 5732 5728 5726 5727 5724 5722 5718 5715 5715 5714 5718 5718 5718 5718 5718 5716 5715 5713 5711 5710 5708 5706 5704 5703 5700 5698 5695 5692 5690 5688 5687 5687 5687 5686 5686 5685 5684 5684 5684 5684
5726 5724 5723 5723 5722 5720 5718 5716 5713 5710 5708 5704 5710 5706 5704 5709 5708 5705 5703 5702 5701 5700 5699 5699 5697 5694 5692 5691 5688 5685 5683 5681 5678 5677 5676 5676 5676 5676 5675 5674 5673 5673 5673 5673
5714 5713 5712 5712 5711 5710 5708 5705 5701 5696 5695 5696 5696 5692 5693 5697 5698 5695 5693 5688 5687 5687 5686 5684 5682 5680 5678 5675 5672 5671 5670 5668 5667 5666 5665 5664 5664 5664 5663 5662 5662 5662 5662 5661
5700 5701 5701 5702 5701 5696 5696 5693 5690 5684 5685 5684 5678 5679 5684 5684 5684 5685 5681 5678 5673 5673 5671 5668 5665 5663 5662 5660 5659 5658 5656 5655 5655 5653 5653 5652 5652 5651 5651 5650 5650 5649 5649 5648
5685 5686 5686 5686 5686 5684 5681 5679 5679 5671 5671 5666 5671 5672 5671 5671 5669 5667 5663 5664 5664 5662 5659 5655 5651 5649 5647 5646 5645 5644 5643 5642 5642 5641 5640 5639 5638 5638 5637 5637 5636 5635 5635 5634
5674 5668 5673 5669 5669 5669 5666 5666 5663 5658 5653 5650 5655 5656 5661 5659 5656 5648 5645 5647 5646 5644 5643 5641 5638 5635 5634 5633 5632 5631 5629 5629 5628 5628 5627 5626 5625 5624 5623 5622 5621 5621 5621 5620
5655 5651 5664 5654 5656 5654 5650 5648 5646 5641 5641 5635 5635 5641 5654 5647 5640 5633 5631 5629 5627 5626 5624 5623 5622 5620 5620 5618 5617 5616 5614 5614 5613 5613 5612 5612 5610 5609 5608 5607 5606 5606 5605 5604
5638 5633 5636 5639 5641 5635 5632 5631 5629 5624 5627 5620 5616 5619 5641 5637 5621 5619 5617 5613 5609 5607 5607 5606 5606 5605 5605 5603 5602 5601 5600 5599 5598 5597 5597 5596 5594 5593 5592 5591 5590 5589 5588 5586
5620 5617 5614 5623 5626 5619 5616 5618 5609 5606 5604 5600 5599 5602 5622 5611 5598 5596 5594 5593 5595 5594 5592 5591 5589 5588 5587 5585 5584 5584 5583 5582 5581 5581 5580 5579 5577 5577 5575 5573 5572 5571 5569 5569
5603 5600 5599 5601 5608 5606 5596 5596 5594 5591 5583 5586 5584 5585 5589 5585 5583 5580 5577 5577 5576 5575 5575 5573 5572 5571 5569 5568 5566 5565 5565 5564 5563 5562 5561 5560 5559 5559 5557 5556 5553 5552 5551 5549
5585 5579 5580 5581 5585 5585 5581 5582 5578 5574 5572 5565 5567 5561 5561 5562 5565 5564 5564 5558 5555 5555 5555 5554 5553 5551 5550 5549 5548 5546 5545 5544 5544 5543 5542 5541 5540 5539 5538 5536 5533 5532 5532 5531
5561 5559 5557 5561 5569 5564 5562 5553 5554 5554 5553 5550 5551 5544 5543 5541 5541 5541 5539 5537 5535 5533 5534 5532 5531 5530 5528 5527 5527 5526 5525 5524 5523 5522 5521 5520 5518 5518 5516 5515 5512 5512 5510 5510
5541 5540 5538 5539 5553 5545 5543 5536 5534 5532 5533 5532 5531 5527 5522 5520 5518 5517 5517 5515 5512 5511 5509 5509 5508 5506 5506 5505 5504 5503 5503 5502 5501 5500 5499 5499 5497 5495 5494 5492 5492 5491 5490 5490
5521 5520 5517 5519 5524 5518 5513 5516 5514 5513 5512 5510 5509 5504 5500 5497 5497 5493 5494 5492 5489 5487 5486 5486 5486 5484 5484 5484 5482 5482 5481 5479 5478 5477 5476 5475 5474 5472 5469 5469 5470 5470 5470 5470
5503 5502 5503 5503 5504 5500 5498 5498 5496 5491 5492 5490 5486 5484 5481 5477 5475 5472 5469 5467 5467 5466 5464 5463 5463 5462 5460 5461 5459 5459 5459 5458 5455 5451 5451 5452 5450 5449 5448 5447 5447 5447 5448 5449
5493 5491 5491 5491 5490 5488 5486 5483 5482 5476 5476 5475 5471 5468 5466 5462 5458 5456 5453 5451 5450 5449 5447 5445 5443 5443 5440 5438 5437 5437 5436 5434 5434 5433 5432 5431 5430 5431 5431 5430 5429 5428 5428 5428
5483 5481 5478 5476 5474 5473 5472 5469 5465 5465 5463 5455 5453 5450 5448 5447 5445 5442 5438 5436 5435 5432 5432 5429 5428 5426 5426 5425 5422 5419 5418 5417 5415 5415 5415 5414 5413 5412 5411 5412 5411 5410 5410 5410
5473 5471 5468 5466 5463 5463 5458 5454 5451 5448 5444 5442 5438 5434 5432 5429 5427 5423 5420 5417 5415 5413 5413 5411 5409 5406 5405 5407 5403 5402 5402 5400 5400 5398 5398 5397 5396 5395 5394 5393 5392 5392 5393 5392
5462 5459 5457 5456 5452 5448 5445 5442 5439 5435 5433 5430 5427 5423 5420 5415 5411 5409 5406 5402 5399 5396 5394 5393 5392 5390 5388 5386 5385 5384 5383 5382 5380 5378 5377 5377 5376 5376 5374 5373 5373 5373 5371 5370
5450 5448 5447 5445 5443 5440 5436 5433 5429 5426 5423 5420 5416 5412 5409 5405 5402 5398 5394 5390 5387 5383 5380 5378 5376 5374 5373 5370 5367 5365 5364 5364 5362 5361 5357 5356 5355 5353 5353 5352 5351 5349 5348 5347
5444 5441 5439 5437 5434 5430 5426 5422 5419 5416 5413 5410 5406 5402 5399 5395 5391 5388 5383 5379 5375 5371 5368 5365 5362 5359 5356 5353 5351 5347 5346 5345 5343 5341 5337 5334 5333 5332 5330 5329 5328 5327 5326 5324
5438 5435 5433 5429 5425 5420 5417 5413 5410 5406 5402 5398 5395 5390 5385 5383 5380 5375 5371 5366 5362 5358 5353 5349 5345 5341 5337 5333 5330 5326 5324 5323 5321 5318 5315 5313 5312 5310 5308 5306 5305 5302 5301 5298